sat.trackr.live / text

‹ back to catalog

STARLINK-5517

NORAD 57249 · 2023-094AH

PAYLOAD ACTIVE UNKNOWN

§ Identity

Operator
Country
US
Launch date
2023-07-07
Launch site
AFWTR
Launch vehicle
Mass (kg)
RCS (m²)

Purposes: comms

External: N2YO · Heavens-Above · Gunter

§ Orbital elements

Epoch: 2026-09-20T06:49:25.201344Z

Period
94.27 min
Inclination
43.0054°
Eccentricity
0.0001376
Mean motion
15.27574769 rev/d
Perigee alt
482.1 km
Apogee alt
484.0 km
Semi-major
6,861.2 km
B*
3.1044e-5
RAAN
0.6114°
Arg perigee
264.2866°
Mean anomaly
95.7829°
Rev number
17,700

§ Raw data

STARLINK-55171 57249U 23094AH  26263.28431946  .00000592  00000+0  31044-4 0  99922 57249  43.0054   0.6114 0001376 264.2866  95.7829 15.27574769177006

JSON: /api/v1/satellites/57249 · /tle

For live sub-satellite position, see the globe view (requires WebGL).

§ Visibility from observer

Set your observer location to see the next 7 days of passes ≥ 10°. The values pass through the URL so the page stays shareable.

No JS? Fill the form by hand. The geolocation button needs JavaScript.